Location: Breitenbach
(51.0041°N, 12.0750°E)
Time: 11:23:49
(UTC+00:00)

Daily predictions for brighter satellites

Satellite Brightness Start Highest point End
(mag) Time Altitude Azimuth Time Altitude Azimuth Time Altitude Azimuth
Cosmos 1140 Rocket 3.7 19:05:19 10° S 19:10:24 54° ESE 19:15:32 10° NNE
USA 276 2.1 19:07:43 10° W 19:10:53 75° S 19:14:04 10° E
MetOp-A 4.3 19:07:28 10° SSE 19:12:50 80° WSW 19:18:14 10° NNW
Cosmos 2360 Rocket 3.9 19:10:41 10° NNW 19:15:04 22° NE 19:19:24 10° E
X-37B 1.8 19:12:25 10° WSW 19:15:10 27° S 19:17:56 10° ESE
ATLAS 5 CENTAUR R/B 4.3 19:11:09 10° WNW 19:15:52 26° WSW 19:21:07 10° S
Cosmos 921 Rocket 3.4 19:12:28 10° N 19:16:33 44° ENE 19:20:33 10° SE
Cosmos 1707 Rocket 3.5 19:14:17 10° N 19:18:40 89° E 19:22:59 10° S
FALCON 9 DEB 3.2 19:15:58 10° SW 19:19:25 58° SSE 19:22:52 10° ENE
Genesis I 3.9 19:19:21 10° NW 19:23:07 50° SW 19:26:52 10° SSE
Cosmos 44 4.3 19:18:37 10° NNW 19:23:08 38° NE 19:27:51 10° ESE
USA 186 3.9 19:21:59 10° SW 19:23:31 16° W 19:25:05 10° NW
Cosmos 1980 Rocket 2.3 19:18:58 10° NNW 19:24:41 82° WSW 19:30:19 10° SSE
OBJECT-B 1.1 19:22:08 10° S 19:25:25 71° WSW 19:28:43 10° NNW
CZ-2C R/B 3.7 19:23:20 10° NNE 19:27:55 61° ESE 19:32:23 10° S
Intercosmos 25 3.8 19:25:13 10° NNW 19:29:18 57° W 19:32:28 10° S
Cosmos 1470 Rocket 4.1 19:29:47 10° SSE 19:33:50 37° E 19:37:53 10° NNE
Meteor 1-4 Rocket 2.6 19:33:38 10° NNW 19:37:06 73° W 19:40:32 10° S
Cosmos 1833 Rocket 3.0 19:32:02 10° SW 19:37:39 74° WNW 19:43:19 10° NNE
NOSS 3-2 (A) 3.6 19:32:19 10° SSW 19:37:47 48° ESE 19:44:02 10° NE
Cosmos 1697 Rocket 3.9 19:32:36 10° NW 19:37:47 39° WSW 19:42:57 10° S
Cosmos 1184 Rocket 3.0 19:35:12 10° S 19:38:22 48° E 19:41:36 10° NNE
Meteor 2-20 Rocket 4.5 19:32:27 10° N 19:38:40 76° ENE 19:44:49 10° SSE
USA 267 3.9 19:33:20 10° ENE 19:39:03 31° SE 19:44:45 10° SSW
Sich 1 3.6 19:35:46 10° SSW 19:40:10 66° WNW 19:44:37 10° N
SPOT 5 3.9 19:40:40 12° ESE 19:43:49 26° ENE 19:47:29 10° N
Cosmos 405 Rocket 3.4 19:42:21 11° SSE 19:45:31 31° E 19:48:54 10° NNE
Cosmos 1862 Rocket 3.6 19:41:36 10° N 19:46:06 85° E 19:50:31 10° S
SL-27 R/B 4.1 19:46:33 14° ESE 19:46:55 14° E 19:48:48 10° ENE
NOSS 3-2 (C) 3.9 19:42:03 10° S 19:47:14 36° ESE 19:53:05 10° NE
Cosmos 1437 Rocket 3.6 19:44:02 10° N 19:47:29 32° ENE 19:49:58 16° SE
SPOT 1/Viking Rocket 3.9 19:45:04 12° SE 19:49:40 52° ENE 19:54:45 10° N
Cosmos 1934 Rocket 4.0 19:45:06 10° S 19:51:28 83° E 19:57:52 10° N
Cosmos 2333 Rocket 4.1 19:48:03 10° NNW 19:52:18 20° NNE 19:56:30 10° E
ERBS 4.2 19:49:48 10° WNW 19:52:44 28° N 19:55:39 10° ENE
Landsat 7 3.9 19:48:45 12° SSE 19:53:04 63° ENE 19:57:47 10° N
Resurs 01 Rocket 2.0 19:48:47 10° S 19:53:11 66° WSW 19:57:37 10° NNW
USA 32 4.1 19:49:11 10° S 19:54:19 63° E 19:59:30 10° NNE
Cosmos 1515 4.5 19:51:10 10° N 19:54:44 36° ENE 19:57:05 18° SE
Cosmos 676 Rocket 4.0 19:54:06 10° SSW 19:59:26 84° ESE 20:04:50 10° NNE
ERS-1 Rocket 3.5 19:56:12 16° SE 19:59:55 43° ENE 20:04:41 10° N
GP-B 3.1 19:55:51 10° N 20:00:19 75° E 20:04:45 10° S
Okean 1 3.4 19:59:10 10° N 20:03:12 63° ENE 20:06:08 18° SSE
Cosmos 841 Rocket 4.1 19:58:50 10° NNW 20:03:52 44° ENE 20:07:29 18° ESE
Meteor 1-19 Rocket 4.2 19:58:37 10° N 20:04:01 63° ENE 20:08:21 16° SSE
CARTOSAT-1 4.0 20:06:55 19° SE 20:09:41 47° ENE 20:13:51 10° N
BREEZE-M DEB (TANK) 1.6 20:08:52 10° W 20:11:20 53° S 20:11:50 38° SE
Cosmos 468 Rocket 4.0 20:06:04 10° NNW 20:11:25 87° WSW 20:15:28 17° SSE
Cosmos 1867 3.8 20:07:28 10° SW 20:12:55 78° NW 20:18:25 10° NE
Cosmos 1933 Rocket 3.5 20:10:13 11° S 20:14:30 67° E 20:18:57 10° NNE
USA 234 3.3 20:10:46 15° ESE 20:16:24 83° NNE 20:22:58 10° WNW
SL-4 R/B 1.7 20:13:01 10° W 20:16:59 88° N 20:20:23 12° E
ATLAS 3B R/B 3.6 20:14:38 17° SSE 20:17:45 25° ESE 20:22:55 10° ENE
IGS 5A 3.6 20:15:48 16° S 20:19:04 75° WSW 20:23:14 10° NNW
Meteor 2-4 Rocket 3.9 20:15:17 10° N 20:20:51 55° ENE 20:24:18 22° SE
Cosmos 1869 Rocket 4.2 20:23:53 25° SE 20:25:49 37° E 20:29:56 10° NNE
Iridium 4 Rocket 4.1 20:25:27 23° ESE 20:26:47 28° E 20:30:21 10° NNE
Cosmos 1814 Rocket 4.3 20:22:27 10° NNW 20:27:35 55° ENE 20:30:36 24° SE
Meteor 1-14 Rocket 4.3 20:23:18 12° S 20:28:42 65° E 20:34:38 10° NNE
Spot 2 Rocket 3.8 20:25:34 15° S 20:29:50 66° WSW 20:34:56 10° NNW
SL-16 R/B 2.2 20:24:50 10° NNW 20:30:33 82° WSW 20:34:14 23° SSE
Cosmos 2219 Rocket 3.7 20:26:11 10° NNW 20:31:01 27° NE 20:35:05 13° E
CZ-4B DEB 4.3 20:30:11 32° SSE 20:31:36 80° ENE 20:34:56 10° NNW
Okean 1-7 2.9 20:29:14 10° N 20:33:35 86° E 20:35:59 26° SSE
Cosmos 1741 Rocket 4.0 20:28:37 10° S 20:33:48 66° ESE 20:39:04 10° NNE
Cosmos 1703 Rocket 3.5 20:30:18 10° NNW 20:34:40 84° W 20:37:16 24° S
ATLAS 5 CENTAUR R/B 2.1 20:34:31 10° NW 20:36:54 52° NE 20:39:34 22° ESE
USA 238 DEB 3.7 20:30:14 10° SW 20:36:55 87° NW 20:43:57 10° NE
USA 238 3.7 20:30:22 10° SW 20:37:02 87° NW 20:44:04 10° NE
Meteor 1-18 Rocket 4.5 20:34:11 10° NNW 20:39:44 66° W 20:44:01 17° S
Cosmos 1570 Rocket 4.0 20:34:22 10° NNW 20:39:44 81° ENE 20:42:42 27° SSE
Cosmos 2082 Rocket 3.4 20:36:34 10° WSW 20:42:01 45° NW 20:47:28 10° NNE
Terra 1.9 20:40:06 29° SE 20:42:28 63° ENE 20:47:13 10° N
Lacrosse 5 2.6 20:38:30 10° WNW 20:43:15 41° SW 20:45:36 25° S
Cosmos 1238 Rocket 3.5 20:44:11 12° SW 20:46:37 36° WNW 20:49:29 10° N
USA 276 2.7 20:44:02 10° W 20:47:03 40° SSW 20:47:07 40° SSW
CENTAUR R/B 2.5 20:41:22 10° SSW 20:47:23 76° SE 20:54:36 10° NE
Cosmos 1605 Rocket 4.4 20:42:01 10° SSW 20:48:02 61° WNW 20:54:06 10° N
Cosmos 2208 Rocket 4.0 20:43:12 10° NNW 20:48:32 80° ENE 20:51:06 31° SSE
Cosmos 1763 Rocket 4.1 20:43:55 10° NNW 20:49:05 51° WSW 20:52:27 21° S
Cosmos 2322 Rocket 2.3 20:43:36 10° NNW 20:49:18 74° WSW 20:52:29 27° SSE
Cosmos 2100 Rocket 4.0 20:45:27 22° SSE 20:49:26 63° E 20:55:31 10° NNE
X-37B 2.5 20:48:50 10° WSW 20:50:24 18° SW 20:50:24 18° SW
FALCON 9 DEB 3.6 20:53:00 10° W 20:56:29 63° N 20:58:46 20° ENE
Cosmos 2173 Rocket 3.9 20:52:59 24° S 20:56:47 67° E 21:02:51 10° NNE
Cosmos 2237 4.2 20:51:26 10° NNW 20:57:12 84° ENE 20:59:59 32° SE
Cosmos 1733 Rocket 4.1 20:57:31 27° E 20:57:57 27° E 21:01:41 10° NNE
Cosmos 2084 Rocket 3.3 20:55:05 10° SW 20:59:17 78° SE 21:03:37 10° NE
Cosmos 2360 Rocket 2.2 20:54:16 10° NNW 20:59:59 81° ENE 21:02:39 33° SE
Cosmos 1500 3.0 20:59:53 45° S 21:00:57 78° E 21:04:43 10° NNE
Cosmos 44 3.8 20:59:46 10° NW 21:04:32 52° WSW 21:06:35 32° S
Cosmos 1725 Rocket 4.4 21:04:44 31° SE 21:07:21 48° E 21:13:23 10° NNE
SAR-Lupe-2 3.6 21:05:26 10° NNE 21:09:02 79° WNW 21:10:12 41° SSW
Cosmos 1356 4.1 21:10:48 39° ENE 21:10:48 39° ENE 21:13:39 10° NNE
Cosmos 1666 3.0 21:11:57 46° E 21:12:00 46° E 21:15:38 10° NNE
Cosmos 1459 Rocket 4.0 21:08:09 24° S 21:12:13 84° E 21:18:38 10° N
Cosmos 1242 Rocket 3.0 21:12:52 10° N 21:16:24 45° ENE 21:16:36 45° E
Cosmos 2016 Rocket 4.1 21:13:23 31° SSE 21:16:27 65° E 21:22:47 10° NNE
COSMOS 2428 3.4 21:13:38 10° NNW 21:19:10 46° NE 21:21:52 27° ESE
Cosmos 44 Rocket 4.0 21:15:10 10° NW 21:19:59 48° NE 21:22:15 29° E
Cosmos 2221 Rocket 3.5 21:15:46 10° N 21:20:17 88° E 21:21:32 48° SSE
Cosmos 2346 Rocket 4.3 21:14:24 10° N 21:20:30 84° E 21:23:12 36° SSE
SL-27 R/B 3.3 21:20:03 24° WSW 21:21:40 44° WNW 21:24:52 10° NNE
SPOT 5 3.5 21:19:54 27° SSW 21:21:44 42° W 21:25:58 10° NNW
USA 267 3.2 21:16:05 10° ENE 21:22:40 83° SSE 21:29:14 10° WSW
Cosmos 540 Rocket 4.1 21:22:46 10° NW 21:27:43 46° WSW 21:29:45 31° SSW
Cosmos 1743 4.3 21:28:20 23° ENE 21:28:20 23° ENE 21:30:57 10° NE
Cosmos 1378 4.0 21:24:44 10° N 21:28:14 36° ENE 21:28:16 36° ENE
NOSS 3-2 (A) 4.4 21:22:50 10° WSW 21:28:39 51° NNW 21:35:25 10° NE
Cosmos 2237 Rocket 3.8 21:24:06 10° NNW 21:28:55 27° NE 21:32:28 15° E
Lacrosse 4 Rocket 2.2 21:29:55 36° E 21:29:55 36° E 21:33:02 10° NE
ERBS 3.4 21:26:26 10° NW 21:29:35 39° NNE 21:30:18 34° NE
Cosmos 1864 Rocket 4.5 21:27:52 36° SSE 21:30:29 69° E 21:36:44 10° NNE
Cosmos 1378 Rocket 4.0 21:28:22 10° N 21:32:41 47° ENE 21:33:20 43° ESE
Cosmos 1271 Rocket 3.5 21:31:47 10° N 21:35:22 38° ENE 21:35:26 38° ENE
Cosmos 2333 Rocket 2.3 21:31:52 10° NNW 21:37:40 69° ENE 21:39:44 40° SE
NOSS 3-2 (C) 4.0 21:31:55 10° WSW 21:37:48 62° NW 21:44:37 10° NE
ERS-1 Rocket 4.4 21:36:13 19° SW 21:38:51 31° W 21:43:19 10° NNW
Cosmos 2061 Rocket 3.9 21:37:27 33° S 21:40:27 89° W 21:46:42 10° N
Meteor 1-11 Rocket 3.7 21:42:34 37° SSW 21:44:57 88° WNW 21:50:49 10° NNE
Cosmos 1066 Rocket 4.1 21:40:21 10° NNW 21:46:05 88° W 21:47:48 47° S
Cosmos 2233 Rocket 4.1 21:45:59 42° SSE 21:48:00 61° E 21:54:15 10° NNE
Cosmos 1802 Rocket 4.3 21:45:24 26° SSW 21:49:13 68° WNW 21:55:32 10° N
Cosmos 1975 Rocket 4.3 21:48:41 10° N 21:52:36 29° ENE 21:53:12 28° E
COSMOS 2487 3.0 21:55:26 52° NNE 21:55:26 52° NNE 21:58:07 10° NNE
SL-4 R/B 2.1 21:52:51 10° W 21:55:57 57° W 21:55:57 57° W
Thor Agena Rocket 3.7 21:52:40 10° NNE 21:57:39 52° E 21:58:13 50° SE
USA 234 3.8 21:58:07 36° S 21:59:48 42° SW 22:05:57 10° WNW
Spot 4 3.7 22:03:39 63° SSE 22:04:26 88° WSW 22:09:18 10° NNW
Iridium 4 Rocket 4.5 22:05:13 24° WSW 22:06:42 31° WNW 22:10:27 10° NNW
ATLAS 3B R/B 2.6 22:01:44 13° SW 22:07:41 87° NW 22:14:25 10° NE
Cosmos 2227 Rocket 4.2 22:09:36 13° E 22:09:36 13° E 22:11:49 10° ENE
Cosmos 1536 3.5 22:12:10 44° W 22:12:41 47° WNW 22:16:33 10° N
SL-16 R/B 4.3 22:10:35 10° WNW 22:13:46 15° W 22:16:06 12° SW
Cosmos 2219 Rocket 2.2 22:09:52 10° NNW 22:15:34 75° WSW 22:16:46 56° S
Cosmos 1674 Rocket 3.9 22:13:35 10° NNW 22:17:49 52° W 22:18:08 51° WSW
NOSS 0 Rocket 4.0 22:12:13 10° NNW 22:18:29 72° NE 22:20:35 43° SE
Terra 3.7 22:18:59 17° WSW 22:20:40 20° W 22:24:07 10° NW
Cosmos 2322 4.1 22:17:07 10° NW 22:22:34 49° WSW 22:23:34 44° SW
Cosmos 1842 3.7 22:19:57 10° N 22:23:29 56° NE 22:23:29 56° NE
EO 1 Del DPAF 3.6 22:20:35 10° NNE 22:23:43 58° NE 22:23:43 58° NE
MOS 1-B Rocket 4.0 22:22:11 10° NNE 22:27:47 67° WNW 22:29:54 38° SW
Cosmos 2344 4.4 22:19:37 10° NW 22:28:33 72° NE 22:39:29 14° SE
Cosmos 1503 Rocket 4.0 22:29:01 61° SE 22:29:31 65° ESE 22:34:50 10° NNE
Okean 2 3.4 22:27:51 10° N 22:31:45 77° NNE 22:31:45 77° NNE
Cosmos 2322 Rocket 4.4 22:29:41 10° WNW 22:32:22 14° W 22:34:18 12° WSW
Geosat 4.2 22:33:13 51° SW 22:33:38 52° WSW 22:38:34 10° NW
Meteor 2-11 Rocket 4.3 22:32:28 52° S 22:34:05 90° S 22:40:15 10° N
ALOS 2 2.5 22:35:05 84° WSW 22:35:07 85° WSW 22:39:33 10° NNW
Cosmos 1486 Rocket 4.1 22:33:50 50° SW 22:35:08 73° WNW 22:40:22 10° NNE
Cosmos 1733 Rocket 4.2 22:34:35 32° WSW 22:35:36 37° WNW 22:39:45 10° N
CENTAUR R/B 3.9 22:32:35 10° W 22:38:42 42° NNW 22:45:55 10° NE
SL-16 R/B 3.5 22:37:47 10° NNW 22:43:00 34° NE 22:46:19 19° E
Cosmos 1975 3.1 22:43:45 62° NE 22:43:45 62° NE 22:47:16 10° NNE
Cosmos 2360 Rocket 3.9 22:39:19 10° NW 22:43:19 20° W 22:44:24 19° WSW
Meteor 1-21 4.2 22:40:56 10° NNW 22:46:47 87° ENE 22:47:53 61° SSE
SL-24 DEB 4.1 22:48:56 10° N 22:53:44 87° E 22:53:57 82° SSE
Cosmos 773 Rocket 3.8 22:49:07 10° NNW 22:54:18 88° ENE 22:54:49 73° SSE
SL-16 R/B 4.5 22:53:40 10° E 22:58:16 22° NE 23:02:51 10° N
Helios 1A 3.1 22:59:36 71° NE 22:59:36 71° NE 23:03:41 10° N
Cosmos 968 Rocket 4.0 22:58:02 41° WSW 22:59:27 54° WNW 23:04:31 10° NNE
Cosmos 1782 Rocket 3.5 23:00:31 80° NNW 23:00:31 80° NNW 23:04:43 10° N
Cosmos 44 Rocket 4.2 22:56:52 10° NW 23:00:56 36° WSW 23:00:56 36° WSW
Cosmos 2297 Rocket 2.9 23:02:01 38° ESE 23:02:08 38° ESE 23:07:18 10° NE
COSMOS 2428 3.4 22:58:06 10° NW 23:03:24 39° WSW 23:03:51 38° WSW
Cosmos 1743 4.0 23:03:24 33° WNW 23:03:25 33° WNW 23:06:59 10° N
Meteor 2-9 Rocket 4.1 23:03:15 63° SSW 23:04:14 90° WNW 23:10:03 10° NNE
Cosmos 1980 3.6 22:59:36 10° NNW 23:05:18 80° WSW 23:06:08 65° S
Cosmos 1538 Rocket 4.0 23:00:19 10° NNW 23:05:31 73° ENE 23:06:16 62° ESE
USA 267 3.8 22:59:09 10° ENE 23:05:33 58° NNW 23:11:56 10° W
Lacrosse 4 Rocket 2.9 23:06:12 24° W 23:07:51 32° NW 23:11:38 10° NNE
Cosmos 1908 Rocket 4.3 23:07:34 41° W 23:07:52 42° WNW 23:12:02 10° N
Cosmos 1607 4.2 23:04:06 10° NW 23:10:34 71° NE 23:13:36 33° ESE
In-Cosmos 22 4.4 23:06:12 10° N 23:11:44 62° ENE 23:12:49 51° ESE
Cosmos 2219 3.4 23:13:13 51° ESE 23:13:32 51° ESE 23:18:58 10° NE
Cosmos 2237 Rocket 2.0 23:07:54 10° NNW 23:13:34 75° WSW 23:14:16 65° S
Cosmos 2026 Rocket 4.5 23:13:07 10° N 23:19:03 50° ENE 23:21:06 36° ESE
Cosmos 2333 Rocket 3.6 23:16:53 10° NW 23:21:26 24° WSW 23:21:43 24° WSW
Timation 2 Rocket 3.8 23:26:06 57° SSW 23:27:27 86° ESE 23:33:30 10° NNE
Meteor 1-12 Rocket 4.3 23:28:45 57° SSE 23:29:56 75° E 23:35:59 10° NNE
Cosmos 1975 Rocket 4.1 23:26:25 10° NNW 23:30:20 36° W 23:30:20 36° W
Cosmos 1674 3.7 23:29:55 10° N 23:33:07 40° ENE 23:33:07 40° ENE
Cosmos 1300 Rocket 3.5 23:34:20 77° NE 23:34:20 77° NE 23:38:25 10° NNE
Cosmos 1634 Rocket 4.4 23:35:14 42° SE 23:36:50 52° E 23:42:50 10° NNE
Cosmos 1464 Rocket 4.3 23:39:31 42° SW 23:41:16 56° WNW 23:47:21 10° N
Helios 1B rocket 3.0 23:41:22 10° NNE 23:45:01 49° E 23:45:01 49° E
Cosmos 1680 Rocket 3.9 23:40:32 10° NNW 23:45:43 58° ENE 23:47:20 40° ESE
Meteor 2-5 Rocket 4.3 23:41:00 10° N 23:46:29 51° ENE 23:48:22 36° ESE
CZ-2D R/B 3.9 23:42:21 10° NE 23:46:30 21° E 23:48:16 18° ESE
Cosmos 1707 3.8 23:44:22 10° NNW 23:47:18 37° WNW 23:47:18 37° WNW
Okean 2 Rocket 3.2 23:50:15 66° W 23:50:18 66° WNW 23:54:49 10° N
Nadezhda 4 Rocket 4.3 23:44:37 10° NNW 23:50:42 53° W 23:52:00 45° SW
Okean 1 Rocket 3.6 23:51:41 46° E 23:51:44 46° E 23:55:56 10° NNE
Cosmos 2227 Rocket 2.1 23:51:25 61° S 23:52:18 73° ESE 23:57:58 10° NNE
Cosmos 1777 Rocket 4.0 23:52:43 62° SW 23:53:34 78° WNW 23:58:53 10° NNE
Cosmos 1025 Rocket 3.5 23:49:35 10° NNW 23:53:18 48° WNW 23:53:18 48° WNW
SJ 16-02 2.3 23:55:08 37° E 23:55:08 37° E 23:59:05 10° NE
